This is the latest recevied weather packets stored in our database for station/object EB2GLU-13. If no packets are shown the sender has not sent any weather packets the latest 10 day(s).
| Time | Temp. | Humidity | Pressure | Rain* | Wind** | Luminosity | Snow |
|---|---|---|---|---|---|---|---|
| 1777841237 | 14.44° C | 93% | 1011.7 hPa | 0 mm | - | - | - |
| 1777840487 | 14.44° C | 93% | 1011.6 hPa | 0.25 mm | - | - | - |
| 1777839737 | 15° C | 92% | 1011.6 hPa | 0.25 mm | - | - | - |
| 1777838236 | 15.56° C | 92% | 1011.2 hPa | 0.25 mm | - | - | - |
| 1777837487 | 15.56° C | 91% | 1010.9 hPa | 0.25 mm | - | - | - |
| 1777836737 | 15.56° C | 90% | 1011.1 hPa | 0 mm | - | - | - |
| 1777835987 | 16.11° C | 90% | 1010.9 hPa | 0.25 mm | - | - | - |
| 1777835236 | 16.11° C | 90% | 1010.8 hPa | 0.25 mm | - | - | - |
| 1777834486 | 16.11° C | 90% | 1010.6 hPa | 0.25 mm | - | - | - |
| 1777833736 | 16.67° C | 88% | 1010.4 hPa | 0.25 mm | - | - | - |
| 1777832986 | 17.78° C | 85% | 1010.3 hPa | 0 mm | - | - | - |
| 1777832236 | 18.33° C | 84% | 1010.5 hPa | 0 mm | - | - | - |
| 1777831486 | 18.89° C | 81% | 1010.1 hPa | 0 mm | - | - | - |
| 1777830736 | 18.89° C | 78% | 1010 hPa | 0 mm | - | - | - |
| 1777829986 | 19.44° C | 78% | 1009.8 hPa | 0 mm | - | - | - |
| 1777829236 | 20° C | 75% | 1010 hPa | 0 mm | - | - | - |
| 1777828486 | 20.56° C | 74% | 1010.1 hPa | 0 mm | - | - | - |
| 1777827736 | 21.67° C | 67% | 1009.7 hPa | 0 mm | - | - | - |
| 1777826986 | 21.67° C | 66% | 1009.8 hPa | 0 mm | - | - | - |
| 1777826236 | 22.22° C | 67% | 1009.9 hPa | 0 mm | - | - | - |
| 1777825486 | 21.67° C | 66% | 1009.7 hPa | 0 mm | - | - | - |
| 1777824736 | 22.22° C | 69% | 1009.6 hPa | 0 mm | - | - | - |
| 1777823986 | 22.22° C | 67% | 1009.8 hPa | 0 mm | - | - | - |
| 1777823236 | 22.22° C | 68% | 1009.7 hPa | 0 mm | - | - | - |
| 1777822486 | 21.67° C | 70% | 1010 hPa | 0 mm | - | - | - |
* Rain latest hour (hover to see other rain measurements)
** Current wind speed in m/s (hover to see current wind gust speed)